Singapore, Singapore

8:06 PM +08 on March 25, 2017 (GMT +0800)
Changi

Weather History for WSSS - October, 2013

Change the Weather History Date:

Saturday, October 19, 2013

  Actual Average Record
Temperature  
Mean Temperature 82 °F -  
Max Temperature 89 °F 87 °F 93 °F (2002)
Min Temperature 75 °F 74 °F 71 °F (1999)
Cooling Degree Days 17    
Growing Degree Days 32 (Base 50)    
Moisture  
Dew Point 76 °F    
Average Humidity 83    
Maximum Humidity 100    
Minimum Humidity 59    
Precipitation  
Precipitation 0.03 in 0.29 in - ()
Sea Level Pressure  
Sea Level Pressure 29.84 in    
Wind  
Wind Speed 3 mph ()    
Max Wind Speed 10 mph    
Max Gust Speed -    
Visibility 6.3 miles    
Events Rain    
Averages and records for this station are not official NWS values.
T = Trace of Precipitation, MM = Missing Value Source: Averaged Metar Reports

Daily Weather History Graph

Daily Weather History Graph

Search for Another Location

Airport or City:

Trip Planner

Search our weather history database for the weather conditions in past years. The results will help you decide how hot, cold, wet, or windy it might be!

Date:

Astronomy

Oct. 19, 2013 Rise Set
Actual Time 6:46 AM +08 6:51 PM +08
Civil Twilight 6:25 AM +08 7:12 PM +08
Nautical Twilight 6:01 AM +08 7:36 PM +08
Astronomical Twilight 5:36 AM +08 8:01 PM +08
Moon 7:09 PM +08 (10/19) 6:45 AM +08 (10/19)
Length of Visible Light 12h 46m
Length of Day
12h 04m
Full, 100% of the Moon is Illuminated
Oct 19
Full
Oct 27
Last Quarter
Nov 3
New
Nov 10
First Quarter
Nov 17
Full

Hourly Weather History & Observations

Time (+08) Temp. Heat Index Dew Point Humidity Pressure Visibility Wind Dir Wind Speed Gust Speed Precip Events Conditions
12:00 AM 77.0 °F - 77.0 °F 100% 29.89 in 6.2 mi Variable 2.3 mph - N/A   Mostly Cloudy
12:30 AM 77.0 °F - 77.0 °F 100% 29.89 in 6.2 mi Variable 2.3 mph - N/A   Mostly Cloudy
1:00 AM 77.0 °F - 75.2 °F 94% 29.86 in 6.2 mi Variable 2.3 mph - N/A   Mostly Cloudy
1:30 AM 77.0 °F - 75.2 °F 94% 29.86 in 6.2 mi Variable 2.3 mph - N/A   Mostly Cloudy
2:00 AM 77 °F - 76 °F 94% 29.85 in 9 mi SW 2.3 mph - -   Mist
2:00 AM 77.0 °F - 75.2 °F 94% 29.83 in 6.2 mi Variable 2.3 mph - N/A   Mostly Cloudy
2:30 AM 77.0 °F - 75.2 °F 94% 29.83 in 6.2 mi Variable 2.3 mph - N/A   Mostly Cloudy
3:00 AM 77.0 °F - 75.2 °F 94% 29.83 in 6.2 mi Variable 2.3 mph - N/A   Scattered Clouds
3:30 AM 77.0 °F - 77.0 °F 100% 29.80 in 6.2 mi WNW 2.3 mph - N/A   Scattered Clouds
4:00 AM 77.0 °F - 77.0 °F 100% 29.80 in 6.2 mi Variable 1.2 mph - N/A   Mostly Cloudy
4:30 AM 77.0 °F - 77.0 °F 100% 29.80 in 6.2 mi WNW 2.3 mph - N/A   Mostly Cloudy
5:00 AM 77 °F - 76 °F 96% 29.81 in 5 mi WNW 2.3 mph - -   Mist
5:00 AM 77.0 °F - 77.0 °F 100% 29.80 in 5.0 mi WNW 2.3 mph - N/A   Mostly Cloudy
5:30 AM 77.0 °F - 77.0 °F 100% 29.80 in 5.0 mi NW 2.3 mph - N/A   Mostly Cloudy
6:00 AM 77.0 °F - 77.0 °F 100% 29.83 in 5.0 mi WNW 2.3 mph - N/A   Mostly Cloudy
6:30 AM 77.0 °F - 77.0 °F 100% 29.83 in 5.0 mi NW 1.2 mph - N/A   Mostly Cloudy
7:00 AM 77.0 °F - 77.0 °F 100% 29.83 in 5.0 mi NW 2.3 mph - N/A   Mostly Cloudy
7:30 AM 78.8 °F - 77.0 °F 94% 29.83 in 5.6 mi NW 2.3 mph - N/A   Mostly Cloudy
8:00 AM 81 °F - 77 °F 85% 29.86 in 6 mi NW 2.3 mph - -   Haze
8:00 AM 80.6 °F 87.1 °F 77.0 °F 89% 29.86 in 6.2 mi Variable 2.3 mph - N/A   Mostly Cloudy
8:30 AM 82.4 °F 90.9 °F 77.0 °F 84% 29.86 in 6.2 mi Variable 1.2 mph - N/A   Mostly Cloudy
9:00 AM 84.2 °F 92.3 °F 75.2 °F 74% 29.86 in 6.2 mi Variable 1.2 mph - N/A   Mostly Cloudy
9:30 AM 84.2 °F 94.1 °F 77.0 °F 79% 29.86 in 6.2 mi Variable 2.3 mph - N/A   Mostly Cloudy
10:00 AM 86.0 °F 95.1 °F 75.2 °F 70% 29.86 in 6.2 mi Variable 2.3 mph - N/A   Mostly Cloudy
10:30 AM 87.8 °F 97.6 °F 75.2 °F 66% 29.89 in 6.2 mi Variable 2.3 mph - N/A   Mostly Cloudy
11:00 AM 88 °F - 76 °F 60% 29.89 in 10 mi East 2.3 mph - -   Haze
11:00 AM 87.8 °F 97.6 °F 75.2 °F 66% 29.89 in 6.2 mi Variable 2.3 mph - N/A   Mostly Cloudy
11:30 AM 87.8 °F 99.7 °F 77.0 °F 70% 29.89 in 6.2 mi ENE 5.8 mph - N/A   Mostly Cloudy
12:00 PM 87.8 °F 99.7 °F 77.0 °F 70% 29.86 in 6.2 mi NE 5.8 mph - N/A   Mostly Cloudy
12:30 PM 87.8 °F 97.6 °F 75.2 °F 66% 29.86 in 6.2 mi ENE 3.5 mph - N/A   Mostly Cloudy
1:00 PM 84.2 °F 90.9 °F 73.4 °F 70% 29.86 in 6.2 mi WSW 5.8 mph - N/A   Scattered Clouds
1:30 PM 86.0 °F 95.1 °F 75.2 °F 70% 29.83 in 6.2 mi Variable 2.3 mph - N/A   Scattered Clouds
2:00 PM 82 °F - 78 °F 83% 29.83 in 5 mi ENE 9.2 mph - - Rain Light Rain Showers
2:00 PM 82.4 °F 90.9 °F 77.0 °F 84% 29.83 in 5.0 mi Variable 9.2 mph - N/A Rain Light Rain Showers
2:30 PM 86.0 °F 95.1 °F 75.2 °F 70% 29.80 in 6.2 mi East 5.8 mph - N/A   Scattered Clouds
3:00 PM 84.2 °F 92.3 °F 75.2 °F 74% 29.80 in 6.2 mi East 10.4 mph - N/A   Scattered Clouds
3:30 PM 84.2 °F 90.9 °F 73.4 °F 70% 29.80 in 6.2 mi East 5.8 mph - N/A   Scattered Clouds
4:00 PM 86.0 °F 93.4 °F 73.4 °F 66% 29.77 in 6.2 mi East 4.6 mph - N/A   Scattered Clouds
4:30 PM 86.0 °F 91.8 °F 71.6 °F 62% 29.77 in 6.2 mi ESE 5.8 mph - N/A   Scattered Clouds
5:00 PM 86 °F - 74 °F 59% 29.78 in 9 mi NE 4.6 mph - -   Haze
5:00 PM 86.0 °F 93.4 °F 73.4 °F 66% 29.77 in 6.2 mi NE 4.6 mph - N/A   Scattered Clouds
5:30 PM 84.2 °F 92.3 °F 75.2 °F 74% 29.77 in 6.2 mi North 3.5 mph - N/A Rain Light Rain Showers
6:00 PM 84.2 °F 92.3 °F 75.2 °F 74% 29.77 in 6.2 mi North 3.5 mph - N/A   Scattered Clouds
6:30 PM 82.4 °F 89.5 °F 75.2 °F 79% 29.80 in 6.2 mi North 3.5 mph - N/A   Scattered Clouds
7:00 PM 82.4 °F 89.5 °F 75.2 °F 79% 29.80 in 6.2 mi Variable 2.3 mph - N/A   Scattered Clouds
7:30 PM 82.4 °F 89.5 °F 75.2 °F 79% 29.83 in 6.2 mi NNW 3.5 mph - N/A   Mostly Cloudy
8:00 PM 81 °F - 75 °F 77% 29.85 in 10 mi NNW 3.5 mph - -   Haze
8:00 PM 80.6 °F 86.2 °F 75.2 °F 84% 29.83 in 6.2 mi NNW 3.5 mph - N/A   Mostly Cloudy
8:30 PM 80.6 °F 86.2 °F 75.2 °F 84% 29.86 in 6.2 mi Variable 2.3 mph - N/A   Mostly Cloudy
9:00 PM 80.6 °F 86.2 °F 75.2 °F 84% 29.86 in 6.2 mi NNW 3.5 mph - N/A   Mostly Cloudy
9:30 PM 80.6 °F 86.2 °F 75.2 °F 84% 29.86 in 6.2 mi Variable 2.3 mph - N/A   Mostly Cloudy
10:00 PM 80.6 °F 86.2 °F 75.2 °F 84% 29.89 in 6.2 mi Variable 2.3 mph - N/A   Mostly Cloudy
10:30 PM 80.6 °F 86.2 °F 75.2 °F 84% 29.89 in 6.2 mi Variable 2.3 mph - N/A   Mostly Cloudy
11:00 PM 80 °F - 76 °F 84% 29.90 in 9 mi North 2.3 mph - -   Haze
11:00 PM 80.6 °F 86.2 °F 75.2 °F 84% 29.89 in 6.2 mi Variable 2.3 mph - N/A   Mostly Cloudy
11:30 PM 80.6 °F 86.2 °F 75.2 °F 84% 29.89 in 6.2 mi NW 3.5 mph - N/A   Mostly Cloudy